Clinton-Sherman, OK

2:43 PM CST on February 19, 2018 (GMT -0600)
Clinton-Sherman

Weather History for KCSM - January, 2013

Change the Weather History Date:

Saturday, January 12, 2013

  Actual Average Record
Temperature  
Mean Temperature 35 °F -  
Max Temperature 46 °F 46 °F 75 °F (2014)
Min Temperature 24 °F 27 °F 9 °F (1997)
Degree Days  
Heating Degree Days 30    
Moisture  
Dew Point 20 °F    
Average Humidity 61    
Maximum Humidity 79    
Minimum Humidity 40    
Precipitation  
Precipitation 0.00 in - - ()
Sea Level Pressure  
Sea Level Pressure 29.98 in    
Wind  
Wind Speed 19 mph (North)    
Max Wind Speed 30 mph    
Max Gust Speed 36 mph    
Visibility 10 miles    
Events      
Averages and records for this station are not official NWS values.
T = Trace of Precipitation, MM = Missing Value Source: NWS Daily Summary

Daily Weather History Graph

Daily Weather History Graph

Search for Another Location

Airport or City:

Trip Planner

Search our weather history database for the weather conditions in past years. The results will help you decide how hot, cold, wet, or windy it might be!

Date:

Astronomy

Jan. 12, 2013 Rise Set
Actual Time 7:45 AM CST 5:45 PM CST
Civil Twilight 7:17 AM CST 6:12 PM CST
Nautical Twilight 6:46 AM CST 6:44 PM CST
Astronomical Twilight 6:15 AM CST 7:14 PM CST
Moon 8:09 AM CST (1/12) 7:11 PM CST (1/12)
Length of Visible Light 10h 54m
Length of Day
9h 59m
New Moon, 1% of the Moon is Illuminated
Jan 12
New Moon
Jan 18
First Quarter
Jan 26
Full
Feb 3
Last Quarter
Feb 10
New

Hourly Weather History & Observations

Time (CST) Temp. Windchill Dew Point Humidity Pressure Visibility Wind Dir Wind Speed Gust Speed Precip Events Conditions
12:53 AM 46.0 °F 39.3 °F 23.0 °F 40% 29.85 in 10.0 mi NW 16.1 mph - N/A   Clear
2:53 AM 42.1 °F 34.5 °F 23.0 °F 47% 29.87 in 10.0 mi North 15.0 mph - N/A   Clear
3:53 AM 39.9 °F 31.8 °F 27.0 °F 60% 29.90 in 10.0 mi North 15.0 mph - N/A   Clear
4:53 AM 37.9 °F 28.5 °F 28.9 °F 70% 29.91 in 10.0 mi North 17.3 mph - N/A   Clear
6:53 AM 33.1 °F 22.2 °F 27.0 °F 78% 29.96 in 10.0 mi North 17.3 mph 26.5 mph N/A   Clear
7:53 AM 33.1 °F 21.5 °F 27.0 °F 78% 29.96 in 10.0 mi North 19.6 mph 25.3 mph N/A   Partly Cloudy
8:53 AM 32.0 °F 20.1 °F 26.1 °F 79% 29.99 in 10.0 mi North 19.6 mph - N/A   Clear
9:53 AM 32.0 °F 18.4 °F 24.1 °F 73% 29.98 in 10.0 mi North 26.5 mph 29.9 mph N/A   Clear
10:53 AM 33.1 °F 20.6 °F 21.0 °F 61% 29.99 in 10.0 mi North 23.0 mph 31.1 mph N/A   Partly Cloudy
11:53 AM 34.0 °F 22.1 °F 18.0 °F 52% 29.99 in 10.0 mi NNE 21.9 mph 33.4 mph N/A   Mostly Cloudy
12:53 PM 35.1 °F 22.0 °F 19.0 °F 52% 29.94 in 10.0 mi North 28.8 mph 34.5 mph N/A   Overcast
1:53 PM 35.1 °F 22.0 °F 16.0 °F 46% 29.93 in 10.0 mi North 28.8 mph 34.5 mph N/A   Clear
2:53 PM 34.0 °F 20.3 °F 18.0 °F 52% 29.94 in 10.0 mi North 29.9 mph 35.7 mph N/A   Clear
3:53 PM 33.1 °F 20.6 °F 15.1 °F 48% 29.98 in 10.0 mi North 23.0 mph 34.5 mph N/A   Partly Cloudy
4:53 PM 30.0 °F 16.3 °F 12.9 °F 49% 30.01 in 10.0 mi North 24.2 mph - N/A   Clear
5:53 PM 28.9 °F 16.1 °F 12.9 °F 51% 30.03 in 10.0 mi North 19.6 mph - N/A   Clear
7:53 PM 25.0 °F 10.6 °F 17.1 °F 72% 30.06 in 10.0 mi North 20.7 mph 25.3 mph N/A   Clear
8:53 PM 24.1 °F 10.1 °F 18.0 °F 77% 30.08 in 10.0 mi North 18.4 mph - N/A   Clear
9:53 PM 24.1 °F 10.6 °F 18.0 °F 77% 30.09 in 10.0 mi North 17.3 mph 25.3 mph N/A   Partly Cloudy
11:53 PM 25.0 °F 11.7 °F 15.1 °F 66% 30.12 in 10.0 mi North 17.3 mph - N/A   Overcast